User: anonymous
Location: Bothell
(47.7630°N, 122.2040°W)
Time: 06:57:10
(UTC-07:00)
Language:

Oscar 16 - Orbit

View from above orbital plane
View from above orbital plane
View from above satellite
View from above satellite

Ground track
Ground track

The orbit data is extracted from the following two-line orbital elements,

1 20439U 90005D   14112.84642770  .00000252  00000-0  10934-3 0    56
2 20439 098.5043 051.2334 0010002 328.0354 097.5075 14.32338904266560
Epoch (UTC): 22 April 2014 20:18:51
Eccentricity: 0.0010002
inclination: 98.5043°
perigee height: 777 km
apogee height: 791 km
right ascension of ascending node: 51.2334°
argument of perigee: 328.0354°
revolutions per day: 14.32338904
mean anomaly at epoch: 97.5075°
orbit number at epoch: 26656

The dashed part of the orbit path shows where the satellite is in the earth's shadow,  

DLR